Weather History for PATK - February, 2014

Change the Weather History Date:

Tuesday, February 25, 2014

  Actual Average Record
Temperature  
Mean Temperature 22 °F -  
Max Temperature 35 °F 30 °F 50 °F (2004)
Min Temperature 8 °F 12 °F -39 °F (1971)
Degree Days  
Heating Degree Days 44    
Moisture  
Dew Point -2 °F    
Average Humidity 36    
Maximum Humidity 59    
Minimum Humidity 12    
Precipitation  
Precipitation 0.00 in - - ()
Sea Level Pressure  
Sea Level Pressure 30.12 in    
Wind  
Wind Speed 3 mph (NNW)    
Max Wind Speed 7 mph    
Max Gust Speed -    
Visibility 10 miles    
Events      
Averages and records for this station are not official NWS values.
T = Trace of Precipitation, MM = Missing Value Source: NWS Daily Summary

Daily Weather History Graph

Daily Weather History Graph

Search for Another Location

Airport or City:

Trip Planner

Search our weather history database for the weather conditions in past years. The results will help you decide how hot, cold, wet, or windy it might be!

Date:

Astronomy

Feb. 25, 2014 Rise Set
Actual Time 8:15 AM AKST 6:12 PM AKST
Civil Twilight 7:29 AM AKST 6:58 PM AKST
Nautical Twilight 6:38 AM AKST 7:50 PM AKST
Astronomical Twilight 5:45 AM AKST 8:42 PM AKST
Moon 6:14 AM AKST (2/25) 1:37 PM AKST (2/25)
Length of Visible Light 11h 28m
Length of Day
9h 56m
Waning Crescent, 17% of the Moon is Illuminated
Feb 25
Waning Crescent
Feb 28
New
Mar 8
First Quarter
Mar 16
Full
Mar 23
Last Quarter

Hourly Weather History & Observations

Time (AKST) Temp. Windchill Dew Point Humidity Pressure Visibility Wind Dir Wind Speed Gust Speed Precip Events Conditions
12:53 AM 8.1 °F - -4.0 °F 58% 30.21 in 10.0 mi Calm Calm - N/A   Mostly Cloudy
1:53 AM 12.9 °F 6.9 °F -4.0 °F 47% 30.21 in 10.0 mi North 3.5 mph - N/A   Overcast
3:53 AM 14.0 °F 5.1 °F -4.0 °F 45% 30.21 in 10.0 mi NNW 5.8 mph - N/A   Mostly Cloudy
4:53 AM 12.0 °F - -2.9 °F 51% 30.20 in 10.0 mi Calm Calm - N/A   Partly Cloudy
5:53 AM 10.0 °F 3.6 °F -4.0 °F 53% 30.19 in 10.0 mi Variable 3.5 mph - N/A   Clear
6:53 AM 10.9 °F 2.9 °F -5.1 °F 49% 30.19 in 10.0 mi North 4.6 mph - N/A   Clear
7:53 AM 10.9 °F 2.9 °F -5.1 °F 49% 30.19 in 10.0 mi NNW 4.6 mph - N/A   Clear
8:53 AM 12.0 °F 2.7 °F -5.1 °F 46% 30.18 in 10.0 mi NNW 5.8 mph - N/A   Clear
9:53 AM 15.1 °F 6.4 °F -5.1 °F 41% 30.18 in 10.0 mi NNW 5.8 mph - N/A   Clear
10:53 AM 19.9 °F 11.1 °F -4.0 °F 35% 30.17 in 10.0 mi NNW 6.9 mph - N/A   Clear
11:53 AM 24.1 °F 17.0 °F -4.0 °F 29% 30.15 in 10.0 mi NNW 5.8 mph - N/A   Clear
12:53 PM 28.0 °F 21.7 °F -2.9 °F 26% 30.14 in 10.0 mi Variable 5.8 mph - N/A   Clear
1:53 PM 30.0 °F 24.1 °F -2.0 °F 25% 30.12 in 10.0 mi NNW 5.8 mph - N/A   Clear
2:53 PM 32.0 °F 26.4 °F -0.9 °F 24% 30.09 in 10.0 mi NNW 5.8 mph - N/A   Clear
3:53 PM 34.0 °F 28.8 °F -0.9 °F 23% 30.06 in 10.0 mi NNW 5.8 mph - N/A   Clear
4:53 PM 34.0 °F 29.8 °F 1.0 °F 25% 30.04 in 10.0 mi NNW 4.6 mph - N/A   Clear
5:53 PM 30.0 °F - 3.0 °F 32% 30.01 in 10.0 mi Calm Calm - N/A   Clear
6:53 PM 28.0 °F 22.8 °F 1.9 °F 33% 30.01 in 10.0 mi North 4.6 mph - N/A   Clear
7:53 PM 28.9 °F 21.9 °F -0.0 °F 29% 30.01 in 10.0 mi North 6.9 mph - N/A   Clear
8:53 PM 27.0 °F - 1.0 °F 33% 30.02 in 10.0 mi Calm Calm - N/A   Clear
9:53 PM 15.1 °F - 3.0 °F 59% 30.03 in 10.0 mi Calm Calm - N/A   Clear
10:53 PM 26.1 °F 18.4 °F -0.9 °F 31% 30.03 in 10.0 mi NNE 6.9 mph - N/A   Clear
11:53 PM 25.0 °F 19.3 °F -0.9 °F 33% 30.04 in 10.0 mi North 4.6 mph - N/A   Clear